Погода в Сухановке

Россия / Свердловская область     56°08′45″N   58°41′25″E
темп.,
°C
ветер,
м/с
пор.,
м/с
влажн.,
%
обл.,
%
осадки,
мм/ч
давл.,
гПа
погр.,
м
11 апреля, вс
вс1123:00+5юв2291100 0.0 103113
02:00+3юв119097 0.0 103110
05:00+3юв2290100 0.0 103216
08:00+5юв2289100 0.0 103235
11:00+9ю377699 0.0 1032260
14:00+12ююз495891 0.0 1031504
17:00+13юз4106776 0.0 1031682
20:00+9юз228493 0.0 103318
12 апреля, пн
пн1223:00+8юз258597 0.0 103387
02:00+7юз2291100 0.2 103424
05:00+6юз2296100 0.9 103553
08:00+6сз1199100 1.1 103627
11:00+6ссв1299100 3.7 103773
14:00+6св2496100 1.6 1038152
17:00+6в1291100 2.1 103839
20:00+6в2388100 0.0 103858
13 апреля, вт
вт1323:00+6в2685100 0.0 1038140
02:00+5в3884100 0.0 1038156
05:00+5вюв2291100 0.0 103846
08:00+6вюв2592100 0.0 1037139
11:00+12ююз247699 0.0 1036490
14:00+14юз34645 0.0 1035772
17:00+16юз34585 0.0 10331134
20:00+12з2276100 0.0 103311
14 апреля, ср
ср1423:00+9зюз128418 0.0 103210
02:00+8юз22805 0.0 103210
05:00+6юз227728 0.0 103217
08:00+7юз277142 0.0 1031188
11:00+12юз354960 0.0 1030478
14:00+15зюз453833 0.0 10281038
17:00+15зюз463745 0.0 10261196
20:00+11з225813 0.0 102527
15 апреля, чт
чт1523:00+8зюз226550 0.0 102421
02:00+7юз22706 0.0 102312
05:00+5юз22755 0.0 102311
08:00+7ююз23705 0.0 1022106
11:00+12юз34515 0.0 1020445
14:00+15зюз34410 0.0 10181009
17:00+16зюз35350 0.0 10161319
20:00+12з22545 0.0 101515